Location: Dammartin
(48.9032°N, 1.6195°E)
Time: 14:34:33
(UTC+00:00)

Cosmos 1709 Rocket - Pass Details

Date: 03 February 2023
Orbit: 948 x 1001 km, 82.9° (Epoch: 29 March)

Event Time Altitude Azimuth Distance (km) Brightness Sun altitude
Rises 19:31:36 0° 350° (N) 3,661 7.2 -26.1°
Reaches altitude 10° 19:34:07 10° 350° (N) 2,703 6.5 -26.5°
Maximum altitude 19:40:18 87° 263° (W) 961 3.9 -27.5°
Enters shadow 19:43:05 35° 175° (S) 1,486 4.8 -28.0°
